"Pseudo-MPEC" for Hna2VO1

Created 2022 Nov 26 22:22:13 UT using Find_Orb

Click here for an explanation of pseudo-MPECs

 
 Astrometry: 
     Hna2VO1*KC2022 11 14)cG[?ln_6I^T)n$D:;TUw+qF3G'dY!AstrometryEyredacted;n221
     Hna2VO1 KC2022 11 14:^*=VBqclick_6u)miE!DvapBt=I6qheregos3nAfor',%DbHo!8221
     Hna2VO1 KC2022 11 14D_+explanation3^-1ZH'VByZXpG'CZvda\D_ylTT*xmj1QQwey$221

Station data:
(221) IAS Observatory, Hakos  (S23.236367 E16.361700)  Namibia.  Observers D.
   Husar, L. Demetz. Measurer D. Husar. 0.2-m f/3 Riccardi-Honders + CCD0.5-m
   f/6.8 Corrected Dall-Kirkham + CCD.

Orbital elements:  Hna2VO1
   Perihelion 2023 May 25.08898 +/- 127 TT =  2:08:07 (JD 2460089.58898)
Epoch 2022 Nov 15.0 TT = JDT 2459898.5   Earth MOID: 0.3828   AutoNEOCP
M 263.45293949 +/- 90               (J2000 ecliptic)
n   0.50524661 +/- 0.378            Peri.  122.81869 +/- 90
a   1.56123078 +/- 0.779            Node    32.13960 +/- 23
e   0.1571913 +/- 0.284             Incl.   25.09154 +/- 22
P   1.95/712.51d           H 19.6   G  0.15   U 12.1  SR
q 1.31581882 +/- 0.687    Q 1.80664274 +/- 32.7
From 3 observations 2022 Nov. 14 (23.6 min); mean residual 0".02
Residuals in arcseconds: 
221114 221  .00   .02+    221114 221  .00   .04-    221114 221  .00   .02+    

Ephemerides (geocentric):
Date (UTC) HH   RA             Dec           delta  r     elong  mag " sig PA
---- --------  ------------   ------------  ------ ------ -----  --- --------
2022 11 26 22  00 51 02.224   +19 46 24.20  .75174 1.6014 133.7 21.2 833' 177
2022 11 26 23  00 50 59.051   +19 46 54.55  .75198 1.6013 133.7 21.2 838' 176
2022 11 27 00  00 50 55.885   +19 47 24.88  .75223 1.6012 133.6 21.2 843' 176
2022 11 27 01  00 50 52.727   +19 47 55.21  .75247 1.6011 133.6 21.2 847' 176
2022 11 27 02  00 50 49.576   +19 48 25.53  .75271 1.6010 133.5 21.2 852' 175
2022 11 27 03  00 50 46.433   +19 48 55.85  .75295 1.6009 133.5 21.2 856' 175
2022 11 27 04  00 50 43.297   +19 49 26.16  .75320 1.6008 133.4 21.2 860' 175
2022 11 27 05  00 50 40.168   +19 49 56.45  .75344 1.6008 133.4 21.2 864' 175
2022 11 27 06  00 50 37.047   +19 50 26.74  .75369 1.6007 133.3 21.2 867' 175
2022 11 27 07  00 50 33.933   +19 50 57.03  .75393 1.6006 133.3 21.3 871' 174
2022 11 27 08  00 50 30.826   +19 51 27.30  .75418 1.6005 133.2 21.3 874' 174
2022 11 27 09  00 50 27.727   +19 51 57.57  .75442 1.6004 133.1 21.3 877' 174
2022 11 27 10  00 50 24.635   +19 52 27.83  .75467 1.6003 133.1 21.3 880' 174
2022 11 27 11  00 50 21.550   +19 52 58.08  .75491 1.6002 133.0 21.3 883' 174
2022 11 27 12  00 50 18.473   +19 53 28.33  .75516 1.6002 133.0 21.3 885' 174
2022 11 27 13  00 50 15.403   +19 53 58.57  .75540 1.6001 132.9 21.3 888' 173
2022 11 27 14  00 50 12.340   +19 54 28.80  .75565 1.6000 132.9 21.3 890' 173
2022 11 27 15  00 50 09.285   +19 54 59.02  .75589 1.5999 132.8 21.3 893' 173
2022 11 27 16  00 50 06.237   +19 55 29.23  .75614 1.5998 132.8 21.3 895' 173
2022 11 27 17  00 50 03.196   +19 55 59.44  .75639 1.5997 132.7 21.3 897' 173
2022 11 27 18  00 50 00.163   +19 56 29.64  .75663 1.5996 132.7 21.3 899' 173
2022 11 27 19  00 49 57.137   +19 56 59.83  .75688 1.5995 132.6 21.3 901' 173
2022 11 27 20  00 49 54.119   +19 57 30.02  .75713 1.5995 132.6 21.3 903' 173
2022 11 27 21  00 49 51.107   +19 58 00.20  .75738 1.5994 132.5 21.3 905' 173
2022 11 27 22  00 49 48.104   +19 58 30.37  .75762 1.5993 132.5 21.3 907' 172
2022 11 27 23  00 49 45.107   +19 59 00.53  .75787 1.5992 132.4 21.3 909' 172
2022 11 28 00  00 49 42.118   +19 59 30.69  .75812 1.5991 132.4 21.3 910' 172
2022 11 28 01  00 49 39.136   +20 00 00.84  .75837 1.5990 132.3 21.3 912' 172
2022 11 28 02  00 49 36.161   +20 00 30.98  .75862 1.5989 132.3 21.3 913' 172
2022 11 28 03  00 49 33.194   +20 01 01.12  .75887 1.5988 132.2 21.3 915' 172
2022 11 28 04  00 49 30.235   +20 01 31.25  .75912 1.5988 132.2 21.3 916' 172
2022 11 28 05  00 49 27.282   +20 02 01.37  .75937 1.5987 132.1 21.3 918' 172
2022 11 28 06  00 49 24.337   +20 02 31.48  .75961 1.5986 132.1 21.3 919' 172
2022 11 28 07  00 49 21.399   +20 03 01.59  .75986 1.5985 132.0 21.3 920' 172
2022 11 28 08  00 49 18.469   +20 03 31.69  .76011 1.5984 132.0 21.3 922' 172
2022 11 28 09  00 49 15.545   +20 04 01.79  .76037 1.5983 131.9 21.3 923' 172
2022 11 28 10  00 49 12.630   +20 04 31.87  .76062 1.5982 131.9 21.3 924' 172
2022 11 28 11  00 49 09.721   +20 05 01.95  .76087 1.5982 131.9 21.3 925' 172
2022 11 28 12  00 49 06.820   +20 05 32.03  .76112 1.5981 131.8 21.3 926' 172
2022 11 28 13  00 49 03.926   +20 06 02.09  .76137 1.5980 131.8 21.3 928' 172
2022 11 28 14  00 49 01.040   +20 06 32.15  .76162 1.5979 131.7 21.3 929' 171
2022 11 28 15  00 48 58.161   +20 07 02.21  .76187 1.5978 131.7 21.3 930' 171
2022 11 28 16  00 48 55.289   +20 07 32.26  .76212 1.5977 131.6 21.3 931' 171
2022 11 28 17  00 48 52.424   +20 08 02.30  .76238 1.5976 131.6 21.3 932' 171
2022 11 28 18  00 48 49.567   +20 08 32.33  .76263 1.5975 131.5 21.3 933' 171
2022 11 28 19  00 48 46.717   +20 09 02.36  .76288 1.5975 131.5 21.3 934' 171
2022 11 28 20  00 48 43.875   +20 09 32.38  .76313 1.5974 131.4 21.3 935' 171
2022 11 28 21  00 48 41.040   +20 10 02.39  .76339 1.5973 131.4 21.3 935' 171